Find Starlink 32786

NORAD ID: 62528 Int'l Des: 2025-004 Owner: SPXS Country: US Constellation: starlink operational
LEOCIRCULAR

Live Position

Loading 3D Globe...

About Starlink 32786

Description loading...

Upcoming Passes

Passes for default location (London). Set your location on the main map for personalized predictions.

Altitude History

Loading altitude history...

Two-Line Element Set

1 62528U 25004T 26125.70808281 .00030206 00000-0 11013-2 0 9993
2 62528 43.0009 257.4505 0001518 275.4719 84.5960 15.27620992 74230
Epoch: May 5, 2026 • Age: 10 hours

Current Status

Altitude 492.3 km
Velocity 7.62 km/s
Sub-Earth Point -35.55°S, 151.07°W
Launch Date Jan 8, 2025
Age 1.3 years
Type internet

Technical Details

Classification Payload
Mass 730.00 kg
Dry Mass 700.00 kg
Total Mass 730.00 kg
Length 0.30 m
Diameter 4.10 m
Span 29.00 m
Shape Box + pan
Manufacturer SPXS
Bus Type Starlink V2M
Phase Status In Orbit
Owner/State SPXS/US

Most Searched